TimePST,TemperatureF,Dew PointF,Humidity,Sea Level PressureIn,VisibilityMPH,Wind Direction,Wind SpeedMPH,Gust SpeedMPH,PrecipitationIn,Events,Conditions,WindDirDegrees,DateUTC
12:53 AM,39.9,37.0,89,30.24,10.0,Calm,Calm,-,N/A,,Overcast,0,2012-12-06 08:53:00
1:53 AM,41.0,37.9,89,30.24,10.0,East,4.6,-,N/A,,Overcast,90,2012-12-06 09:53:00
2:53 AM,41.0,37.9,89,30.25,10.0,Calm,Calm,-,N/A,,Overcast,0,2012-12-06 10:53:00
3:53 AM,41.0,37.9,89,30.24,10.0,Calm,Calm,-,N/A,,Overcast,0,2012-12-06 11:53:00
4:53 AM,42.1,37.9,85,30.22,10.0,Calm,Calm,-,N/A,,Overcast,0,2012-12-06 12:53:00
5:53 AM,43.0,37.9,82,30.22,10.0,Calm,Calm,-,N/A,,Overcast,0,2012-12-06 13:53:00
6:53 AM,43.0,37.9,82,30.21,10.0,Calm,Calm,-,N/A,,Overcast,0,2012-12-06 14:53:00
7:53 AM,43.0,37.9,82,30.22,10.0,South,4.6,-,N/A,,Overcast,180,2012-12-06 15:53:00
8:53 AM,44.1,37.9,79,30.22,10.0,SSW,8.1,-,N/A,,Overcast,210,2012-12-06 16:53:00
9:53 AM,46.9,37.9,71,30.23,10.0,SW,6.9,-,N/A,,Overcast,230,2012-12-06 17:53:00
10:53 AM,48.0,39.0,71,30.22,10.0,SW,9.2,-,N/A,,Overcast,220,2012-12-06 18:53:00
11:53 AM,48.9,37.9,66,30.20,10.0,SW,15.0,27.6,N/A,,Overcast,230,2012-12-06 19:53:00
12:53 PM,48.9,37.9,66,30.18,10.0,SW,16.1,21.9,N/A,,Overcast,220,2012-12-06 20:53:00
1:53 PM,48.9,39.0,69,30.16,10.0,SW,12.7,20.7,N/A,,Overcast,220,2012-12-06 21:53:00
2:42 PM,48.2,39.2,71,30.16,10.0,SSW,13.8,-,N/A,,Overcast,210,2012-12-06 22:42:00
2:53 PM,48.9,39.9,71,30.16,10.0,SW,16.1,24.2,0.00,Rain,Light Rain,220,2012-12-06 22:53:00
3:53 PM,48.0,39.9,74,30.16,10.0,SSW,13.8,23.0,0.00,,Overcast,210,2012-12-06 23:53:00
4:53 PM,48.0,39.9,74,30.16,10.0,SSW,15.0,19.6,N/A,,Overcast,210,2012-12-07 00:53:00
5:53 PM,46.9,41.0,80,30.16,10.0,SSW,12.7,-,0.00,,Overcast,210,2012-12-07 01:53:00
6:53 PM,46.9,42.1,83,30.17,10.0,SW,12.7,-,N/A,,Overcast,220,2012-12-07 02:53:00
7:53 PM,46.9,42.1,83,30.18,8.0,SW,10.4,-,0.00,Rain,Light Rain,220,2012-12-07 03:53:00
8:16 PM,46.4,42.8,87,30.19,10.0,SW,9.2,-,0.00,,Overcast,220,2012-12-07 04:16:00
8:25 PM,46.4,42.8,87,30.18,10.0,SW,13.8,18.4,0.00,,Overcast,220,2012-12-07 04:25:00
8:42 PM,46.4,42.8,87,30.18,10.0,SW,12.7,-,0.00,,Overcast,220,2012-12-07 04:42:00
8:53 PM,46.9,42.1,83,30.18,10.0,SSW,12.7,-,0.00,,Overcast,210,2012-12-07 04:53:00
9:53 PM,46.9,42.1,83,30.19,10.0,SSW,11.5,-,0.00,,Overcast,210,2012-12-07 05:53:00
10:53 PM,46.9,41.0,80,30.20,10.0,SW,11.5,17.3,N/A,,Overcast,230,2012-12-07 06:53:00
11:53 PM,46.9,42.1,83,30.20,10.0,SW,11.5,-,N/A,,Overcast,220,2012-12-07 07:53:00